YV3251 SVMI-SVRS

Flight info

Callsign YV3251
Flight time 0h 23m
Altitude 13000
Route DARPA2 DARPA DCT IRIBE DCT EDGEL
Aircraft B350/L-SBGRW/S

Departure

Time 2026-04-12 04:37
Airport Maiquetía Simón Bolívar International Airport (SVMI)

Arrival

Time 2026-04-12 05:01
Airport Los Roques Airport (SVRS)
Time Latitude Longitude Altitude Speed Heading
2026-04-12 04:20 10.59740 -66.99427 288 ft 0 kts 75°
2026-04-12 04:31 10.59743 -66.99415 289 ft 5 kts 75°
2026-04-12 04:32 10.59791 -66.99412 288 ft 3 kts 343°
2026-04-12 04:32 10.59807 -66.99441 288 ft 8 kts 257°
2026-04-12 04:32 10.59791 -66.99496 289 ft 8 kts 258°
2026-04-12 04:32 10.59798 -66.99577 289 ft 10 kts 285°
2026-04-12 04:33 10.59815 -66.99643 288 ft 13 kts 278°
2026-04-12 04:33 10.59818 -66.99709 288 ft 0 kts 276°
2026-04-12 04:34 10.59820 -66.99732 288 ft 11 kts 277°
2026-04-12 04:34 10.59880 -66.99733 288 ft 3 kts 70°
2026-04-12 04:35 10.59880 -66.99732 288 ft 0 kts 72°
2026-04-12 04:37 10.59884 -66.99718 288 ft 22 kts 73°
2026-04-12 04:37 10.60015 -66.99166 290 ft 125 kts 76°
2026-04-12 04:37 10.60290 -66.98218 706 ft 158 kts 71°
2026-04-12 04:37 10.60822 -66.97133 1182 ft 176 kts 56°
2026-04-12 04:38 10.61527 -66.96237 2145 ft 160 kts 43°
2026-04-12 04:38 10.62559 -66.95885 2849 ft 165 kts 359°
2026-04-12 04:38 10.63704 -66.96130 3447 ft 173 kts 351°
2026-04-12 04:38 10.64900 -66.96429 4018 ft 180 kts 350°
2026-04-12 04:39 10.66130 -66.96722 4604 ft 187 kts 350°
2026-04-12 04:39 10.67411 -66.97001 5275 ft 191 kts 351°
2026-04-12 04:39 10.68708 -66.97272 5957 ft 192 kts 350°
2026-04-12 04:39 10.70024 -66.97347 6608 ft 191 kts 15°
2026-04-12 04:40 10.71242 -66.96833 7255 ft 191 kts 23°
2026-04-12 04:40 10.72518 -66.96393 7887 ft 193 kts 18°
2026-04-12 04:40 10.73808 -66.96025 8481 ft 194 kts 16°
2026-04-12 04:40 10.75114 -66.95681 9046 ft 196 kts 15°
2026-04-12 04:41 10.76459 -66.95336 9640 ft 200 kts 15°
2026-04-12 04:41 10.77789 -66.94997 10251 ft 201 kts 15°
2026-04-12 04:41 10.79152 -66.94653 10871 ft 201 kts 15°
2026-04-12 04:41 10.80472 -66.94318 11602 ft 193 kts 15°
2026-04-12 04:42 10.81741 -66.93997 12331 ft 187 kts 15°
2026-04-12 04:42 10.83010 -66.93676 12847 ft 193 kts 15°
2026-04-12 04:42 10.84398 -66.93324 12944 ft 219 kts 15°
2026-04-12 04:43 10.87687 -66.92491 12964 ft 262 kts 14°
2026-04-12 04:43 10.89500 -66.91962 12945 ft 276 kts 21°
2026-04-12 04:43 10.91312 -66.91512 12943 ft 286 kts
2026-04-12 04:43 10.93218 -66.91207 12952 ft 293 kts 12°
2026-04-12 04:44 10.95239 -66.90778 12942 ft 297 kts 13°
2026-04-12 04:44 10.97271 -66.90330 12937 ft 298 kts 13°
2026-04-12 04:44 10.99301 -66.89880 12930 ft 298 kts 13°
2026-04-12 04:44 11.01326 -66.89431 12931 ft 298 kts 13°
2026-04-12 04:45 11.03380 -66.88975 12926 ft 298 kts 13°
2026-04-12 04:45 11.05411 -66.88525 12930 ft 298 kts 13°
2026-04-12 04:45 11.07432 -66.88077 12931 ft 298 kts 13°
2026-04-12 04:45 11.09492 -66.87621 12930 ft 298 kts 13°
2026-04-12 04:46 11.11378 -66.87176 12928 ft 298 kts 14°
2026-04-12 04:46 11.13390 -66.86691 12929 ft 297 kts 14°
2026-04-12 04:46 11.15409 -66.86204 12933 ft 296 kts 14°
2026-04-12 04:46 11.17418 -66.85719 12931 ft 295 kts 14°
2026-04-12 04:47 11.19422 -66.85236 12931 ft 295 kts 14°
2026-04-12 04:47 11.21424 -66.84753 12932 ft 295 kts 14°
2026-04-12 04:47 11.23424 -66.84270 12935 ft 295 kts 14°
2026-04-12 04:47 11.25293 -66.83818 12932 ft 295 kts 14°
2026-04-12 04:48 11.27305 -66.83333 12930 ft 295 kts 14°
2026-04-12 04:48 11.29292 -66.82853 12929 ft 295 kts 14°
2026-04-12 04:48 11.31305 -66.82366 12929 ft 295 kts 14°
2026-04-12 04:48 11.33311 -66.81882 12931 ft 295 kts 14°
2026-04-12 04:49 11.35328 -66.81394 12931 ft 295 kts 14°
2026-04-12 04:49 11.37323 -66.80913 12930 ft 295 kts 14°
2026-04-12 04:49 11.39321 -66.80430 12932 ft 295 kts 14°
2026-04-12 04:49 11.41314 -66.79948 12847 ft 287 kts 14°
2026-04-12 04:50 11.43227 -66.79485 12467 ft 283 kts 14°
2026-04-12 04:50 11.45134 -66.79023 12105 ft 279 kts 14°
2026-04-12 04:50 11.47026 -66.78565 11733 ft 273 kts 14°
2026-04-12 04:50 11.48858 -66.78120 11371 ft 268 kts 14°
2026-04-12 04:51 11.50650 -66.77685 11008 ft 263 kts 14°
2026-04-12 04:51 11.52423 -66.77257 10639 ft 258 kts 14°
2026-04-12 04:51 11.54153 -66.76838 10276 ft 254 kts 14°
2026-04-12 04:51 11.55865 -66.76424 9912 ft 250 kts 14°
2026-04-12 04:52 11.57567 -66.76012 9549 ft 248 kts 14°
2026-04-12 04:52 11.59270 -66.75969 9166 ft 248 kts 348°
2026-04-12 04:52 11.60902 -66.76558 8823 ft 246 kts 340°
2026-04-12 04:52 11.62481 -66.77177 8467 ft 245 kts 340°
2026-04-12 04:53 11.64095 -66.77808 8104 ft 244 kts 340°
2026-04-12 04:53 11.65668 -66.78423 7746 ft 243 kts 340°
2026-04-12 04:53 11.68831 -66.79659 7024 ft 241 kts 341°
2026-04-12 04:54 11.70378 -66.80264 6669 ft 240 kts 341°
2026-04-12 04:54 11.71956 -66.80881 6307 ft 240 kts 340°
2026-04-12 04:54 11.73504 -66.81486 5950 ft 239 kts 341°
2026-04-12 04:54 11.75059 -66.82095 5591 ft 239 kts 341°
2026-04-12 04:55 11.76626 -66.82707 5230 ft 239 kts 341°
2026-04-12 04:55 11.78175 -66.83313 4871 ft 239 kts 342°
2026-04-12 04:55 11.79763 -66.83765 4489 ft 234 kts
2026-04-12 04:55 11.81321 -66.83460 4148 ft 227 kts 22°
2026-04-12 04:56 11.82819 -66.82922 3791 ft 227 kts 23°
2026-04-12 04:56 11.84313 -66.82378 3429 ft 226 kts 24°
2026-04-12 04:56 11.85788 -66.81839 3071 ft 225 kts 24°
2026-04-12 04:56 11.87203 -66.81265 2900 ft 208 kts 37°
2026-04-12 04:57 11.88130 -66.80240 2669 ft 192 kts 63°
2026-04-12 04:57 11.88737 -66.79085 2405 ft 177 kts 65°
2026-04-12 04:57 11.89278 -66.78000 2035 ft 168 kts 66°
2026-04-12 04:57 11.89792 -66.76952 1667 ft 163 kts 66°
2026-04-12 04:58 11.90288 -66.75934 1513 ft 155 kts 66°
2026-04-12 04:58 11.90737 -66.75010 1473 ft 134 kts 66°
2026-04-12 04:58 11.91144 -66.74170 1498 ft 129 kts 66°
2026-04-12 04:58 11.91544 -66.73357 1326 ft 129 kts 65°
2026-04-12 04:59 11.91922 -66.72534 1058 ft 127 kts 71°
2026-04-12 04:59 11.92296 -66.71755 929 ft 112 kts 59°
2026-04-12 04:59 11.92696 -66.71098 784 ft 104 kts 69°
2026-04-12 04:59 11.92991 -66.70436 560 ft 103 kts 66°
2026-04-12 05:00 11.93306 -66.69787 456 ft 103 kts 72°
2026-04-12 05:00 11.93597 -66.69134 381 ft 100 kts 64°
2026-04-12 05:00 11.93886 -66.68520 232 ft 93 kts 67°
2026-04-12 05:00 11.94173 -66.67928 128 ft 92 kts 68°
2026-04-12 05:01 11.94450 -66.67343 21 ft 89 kts 67°
2026-04-12 05:01 11.94662 -66.66895 11 ft 42 kts 63°
2026-04-12 05:01 11.94747 -66.66760 11 ft 4 kts 67°
2026-04-12 05:01 11.94701 -66.66807 11 ft 20 kts 240°
2026-04-12 05:02 11.94638 -66.66953 11 ft 26 kts 247°
2026-04-12 05:02 11.94587 -66.67050 11 ft 16 kts 243°
2026-04-12 05:02 11.94533 -66.67158 11 ft 10 kts 247°
2026-04-12 05:02 11.94494 -66.67245 11 ft 15 kts 242°
2026-04-12 05:03 11.94491 -66.67310 11 ft 8 kts 282°
2026-04-12 05:03 11.94505 -66.67329 11 ft 2 kts 326°
2026-04-12 05:03 11.94511 -66.67344 11 ft 2 kts 170°
2026-04-12 05:03 11.94508 -66.67342 11 ft 0 kts 152°
2026-04-12 05:06 11.94510 -66.67343 11 ft 0 kts 150°
2026-04-12 05:06 11.94511 -66.67345 11 ft 0 kts 147°
2026-04-12 05:07 11.94514 -66.67346 11 ft 0 kts 149°
2026-04-12 05:07 11.94515 -66.67348 11 ft 0 kts 153°